| time (UTC) | temp C | wind direction | speed KPH | gust KPH | rain 1hr cm | rain 24hr cm | rain mn cm | humidity % | barometer mb |
| 20260504014556 | 12 | 219 | 9.7 | 17.7 | 0.00 | 0.00 | 0.00 | 56 | 1010.0 |
| 20260504013057 | 12 | 229 | 11.3 | 20.9 | 0.00 | 0.00 | 0.00 | 55 | 1010.0 |
| 20260504011554 | 12 | 210 | 11.3 | 27.4 | 0.00 | 0.00 | 0.00 | 55 | 1009.9 |
| 20260504010055 | 12 | 212 | 11.3 | 27.4 | 0.00 | 0.00 | 0.00 | 55 | 1009.9 |
| 20260504004550 | 12 | 265 | 11.3 | 30.6 | 0.00 | 0.00 | 0.00 | 56 | 1009.8 |
| 20260504003053 | 12 | 207 | 8.0 | 17.7 | 0.00 | 0.00 | 0.00 | 58 | 1009.8 |
| 20260504001554 | 12 | 257 | 3.2 | 25.7 | 0.00 | 0.00 | 0.00 | 58 | 1009.9 |
| 20260504000051 | 11 | 215 | 6.4 | 17.7 | 0.00 | 0.00 | 0.00 | 60 | 1010.0 |
| 20260503234647 | 11 | 250 | 1.6 | 11.3 | 0.00 | 0.00 | 0.00 | 68 | 1010.2 |
| 20260503233050 | 10 | 262 | 0.0 | 4.8 | 0.00 | 0.00 | 0.00 | 72 | 1010.3 |
| 20260503231545 | 11 | 266 | 0.0 | 4.8 | 0.00 | 0.00 | 0.00 | 71 | 1010.5 |
| 20260503230045 | 11 | 273 | 1.6 | 8.0 | 0.00 | 0.00 | 0.00 | 71 | 1010.5 |
| 20260503224544 | 11 | 260 | 1.6 | 16.1 | 0.00 | 0.00 | 0.00 | 69 | 1010.6 |
| 20260503223044 | 11 | 262 | 3.2 | 17.7 | 0.00 | 0.00 | 0.00 | 70 | 1010.7 |
| 20260503221554 | 11 | 239 | 4.8 | 27.4 | 0.00 | 0.00 | 0.00 | 66 | 1010.8 |
| 20260503220043 | 11 | 309 | 4.8 | 22.5 | 0.00 | 0.00 | 0.00 | 66 | 1010.5 |
| 20260503214542 | 11 | 221 | 9.7 | 27.4 | 0.00 | 0.00 | 0.00 | 65 | 1010.4 |
| 20260503213043 | 11 | 259 | 6.4 | 27.4 | 0.00 | 0.00 | 0.00 | 65 | 1010.2 |
| 20260503211540 | 11 | 283 | 8.0 | 20.9 | 0.00 | 0.00 | 0.00 | 65 | 1010.3 |
| 20260503210039 | 10 | 219 | 8.0 | 29.0 | 0.00 | 0.00 | 0.00 | 65 | 1010.4 |
| 20260503204539 | 10 | 221 | 11.3 | 29.0 | 0.00 | 0.00 | 0.00 | 64 | 1010.6 |
| 20260503203052 | 11 | 261 | 9.7 | 25.7 | 0.00 | 0.00 | 0.00 | 62 | 1010.6 |
| 20260503201536 | 11 | 281 | 4.8 | 20.9 | 0.00 | 0.00 | 0.00 | 62 | 1010.8 |
| 20260503200034 | 11 | 228 | 9.7 | 22.5 | 0.00 | 0.00 | 0.00 | 61 | 1010.9 |
| 20260503194532 | 11 | 239 | 6.4 | 27.4 | 0.00 | 0.00 | 0.00 | 59 | 1011.1 |
| 20260503193031 | 11 | 233 | 12.9 | 29.0 | 0.00 | 0.00 | 0.00 | 58 | 1011.3 |
| 20260503191534 | 11 | 248 | 12.9 | 24.1 | 0.00 | 0.00 | 0.00 | 57 | 1011.5 |
| 20260503190027 | 11 | 180 | 11.3 | 25.7 | 0.00 | 0.00 | 0.00 | 56 | 1011.8 |
| 20260503184626 | 12 | 202 | 9.7 | 32.2 | 0.00 | 0.00 | 0.00 | 55 | 1011.8 |
| 20260503183025 | 12 | 303 | 8.0 | 33.8 | 0.00 | 0.00 | 0.00 | 52 | 1012.1 |
| 20260503181521 | 11 | 255 | 11.3 | 27.4 | 0.00 | 0.00 | 0.00 | 51 | 1012.3 |
| 20260503180020 | 11 | 228 | 11.3 | 27.4 | 0.00 | 0.00 | 0.00 | 53 | 1012.6 |
| 20260503174518 | 11 | 254 | 12.9 | 32.2 | 0.00 | 0.00 | 0.00 | 54 | 1012.7 |
| 20260503173014 | 11 | 254 | 8.0 | 24.1 | 0.00 | 0.00 | 0.00 | 55 | 1013.2 |
| 20260503171514 | 10 | 217 | 12.9 | 27.4 | 0.00 | 0.00 | 0.00 | 54 | 1013.4 |
| 20260503081553 | -1 | 252 | 0.0 | 0.0 | 0.00 | 0.00 | 0.00 | 93 | 1015.5 |
| 20260503071604 | -1 | 252 | 0.0 | 0.0 | 0.00 | 0.00 | 0.00 | 92 | 1015.3 |
| 20260503054548 | 0 | 252 | 0.0 | 0.0 | 0.00 | 0.00 | 0.00 | 89 | 1015.6 |
| 20260503053034 | 1 | 252 | 0.0 | 0.0 | 0.00 | 0.00 | 0.00 | 89 | 1015.6 |
| 20260503051529 | 1 | 252 | 0.0 | 0.0 | 0.00 | 0.00 | 0.00 | 88 | 1015.7 |
| 20260503050036 | 1 | 252 | 0.0 | 0.0 | 0.00 | 0.00 | 0.00 | 88 | 1015.9 |
| 20260503044524 | 1 | 252 | 0.0 | 0.0 | 0.00 | 0.00 | 0.00 | 87 | 1015.9 |
| 20260503043021 | 2 | 252 | 0.0 | 0.0 | 0.00 | 0.00 | 0.00 | 85 | 1016.0 |
| 20260503041527 | 2 | 252 | 0.0 | 0.0 | 0.00 | 0.00 | 0.00 | 84 | 1016.2 |
| 20260503040015 | 2 | 252 | 0.0 | 0.0 | 0.00 | 0.00 | 0.00 | 82 | 1016.2 |
| 20260503034515 | 3 | 252 | 0.0 | 0.0 | 0.00 | 0.00 | 0.00 | 80 | 1016.2 |
| 20260503033014 | 3 | 252 | 0.0 | 0.0 | 0.00 | 0.00 | 0.00 | 79 | 1016.2 |
| 20260503031514 | 3 | 252 | 0.0 | 0.0 | 0.00 | 0.00 | 0.00 | 79 | 1016.2 |
| 20260503030015 | 3 | 252 | 0.0 | 0.0 | 0.00 | 0.00 | 0.00 | 79 | 1016.3 |
| 20260503024513 | 4 | 252 | 0.0 | 0.0 | 0.00 | 0.00 | 0.00 | 79 | 1016.3 |
| 20260503023012 | 4 | 252 | 0.0 | 0.0 | 0.00 | 0.00 | 0.00 | 78 | 1016.5 |
| 20260503021519 | 4 | 253 | 0.0 | 0.0 | 0.00 | 0.00 | 0.00 | 76 | 1016.6 |
| 20260503020015 | 4 | 253 | 0.0 | 3.2 | 0.00 | 0.00 | 0.00 | 76 | 1016.5 |